| time (UTC) | temp F | wind direction | speed MPH | gust MPH | rain 1hr in | rain 24hr in | rain mn in | humidity % | barometer mb |
| 20260502180555 | 66 | 232 | 0.0 | 2.0 | 0.00 | 0.00 | 0.00 | 59 | 1017.9 |
| 20260502170334 | 70 | 238 | 3.0 | 7.0 | 0.00 | 0.00 | 0.00 | 47 | 1017.7 |
| 20260502164239 | 72 | 227 | 3.0 | 8.0 | 0.00 | 0.00 | 0.00 | 45 | 1017.7 |
| 20260502163738 | 72 | 219 | 2.0 | 8.0 | 0.00 | 0.00 | 0.00 | 45 | 1017.8 |
| 20260502163209 | 73 | 213 | 2.0 | 4.0 | 0.00 | 0.00 | 0.00 | 44 | 1017.8 |
| 20260502162707 | 73 | 207 | 3.0 | 8.0 | 0.00 | 0.00 | 0.00 | 44 | 1017.8 |
| 20260502162140 | 73 | 211 | 5.0 | 9.0 | 0.00 | 0.00 | 0.00 | 43 | 1017.8 |
| 20260502161638 | 73 | 229 | 5.0 | 9.0 | 0.00 | 0.00 | 0.00 | 44 | 1017.9 |
| 20260502160547 | 74 | 199 | 4.0 | 9.0 | 0.00 | 0.00 | 0.00 | 45 | 1017.9 |
| 20260502151859 | 75 | 205 | 2.0 | 7.0 | 0.00 | 0.00 | 0.00 | 40 | 1018.2 |
| 20260502151355 | 76 | 223 | 1.0 | 7.0 | 0.00 | 0.00 | 0.00 | 42 | 1018.2 |
| 20260502150854 | 76 | 192 | 2.0 | 7.0 | 0.00 | 0.00 | 0.00 | 40 | 1018.2 |
| 20260502150328 | 75 | 208 | 3.0 | 7.0 | 0.00 | 0.00 | 0.00 | 43 | 1018.3 |
| 20260502140116 | 76 | 279 | 1.0 | 7.0 | 0.00 | 0.00 | 0.00 | 43 | 1019.0 |
| 20260502130347 | 74 | 270 | 3.0 | 7.0 | 0.00 | 0.00 | 0.00 | 41 | 1019.7 |
| 20260502123809 | 74 | 169 | 1.0 | 6.0 | 0.00 | 0.00 | 0.00 | 42 | 1020.0 |
| 20260502123305 | 73 | 171 | 1.0 | 6.0 | 0.00 | 0.00 | 0.00 | 43 | 1020.1 |
| 20260502122735 | 73 | 215 | 2.0 | 5.0 | 0.00 | 0.00 | 0.00 | 43 | 1020.2 |
| 20260502122234 | 73 | 198 | 2.0 | 7.0 | 0.00 | 0.00 | 0.00 | 41 | 1020.3 |
| 20260502121706 | 73 | 205 | 2.0 | 7.0 | 0.00 | 0.00 | 0.00 | 42 | 1020.3 |
| 20260502121139 | 73 | 190 | 0.0 | 5.0 | 0.00 | 0.00 | 0.00 | 42 | 1020.5 |
| 20260502120640 | 73 | 210 | 0.0 | 5.0 | 0.00 | 0.00 | 0.00 | 46 | 1020.6 |
| 20260502115630 | 72 | 184 | 2.0 | 9.0 | 0.00 | 0.00 | 0.00 | 42 | 1020.7 |
| 20260502115124 | 72 | 227 | 0.0 | 3.0 | 0.00 | 0.00 | 0.00 | 44 | 1020.8 |
| 20260502114029 | 71 | 186 | 1.0 | 5.0 | 0.00 | 0.00 | 0.00 | 43 | 1021.0 |
| 20260502113458 | 71 | 150 | 3.0 | 9.0 | 0.00 | 0.00 | 0.00 | 44 | 1021.0 |
| 20260502112449 | 71 | 192 | 1.0 | 8.0 | 0.00 | 0.00 | 0.00 | 44 | 1021.2 |
| 20260502111920 | 70 | 187 | 1.0 | 8.0 | 0.00 | 0.00 | 0.00 | 44 | 1021.4 |
| 20260502111418 | 70 | 203 | 1.0 | 5.0 | 0.00 | 0.00 | 0.00 | 46 | 1021.5 |
| 20260502110907 | 70 | 229 | 1.0 | 7.0 | 0.00 | 0.00 | 0.00 | 45 | 1021.5 |
| 20260502110412 | 70 | 95 | 1.0 | 7.0 | 0.00 | 0.00 | 0.00 | 50 | 1021.5 |
| 20260502105842 | 70 | 161 | 1.0 | 5.0 | 0.00 | 0.00 | 0.00 | 46 | 1021.6 |
| 20260502105319 | 69 | 144 | 1.0 | 5.0 | 0.00 | 0.00 | 0.00 | 47 | 1021.8 |
| 20260502104815 | 69 | 180 | 1.0 | 6.0 | 0.00 | 0.00 | 0.00 | 47 | 1021.9 |
| 20260502104247 | 69 | 203 | 1.0 | 6.0 | 0.00 | 0.00 | 0.00 | 49 | 1021.9 |
| 20260502103734 | 69 | 200 | 0.0 | 4.0 | 0.00 | 0.00 | 0.00 | 50 | 1022.0 |
| 20260502103238 | 68 | 155 | 0.0 | 4.0 | 0.00 | 0.00 | 0.00 | 48 | 1022.1 |
| 20260502102731 | 68 | 68 | 0.0 | 5.0 | 0.00 | 0.00 | 0.00 | 49 | 1022.2 |
| 20260502102230 | 67 | 179 | 0.0 | 5.0 | 0.00 | 0.00 | 0.00 | 51 | 1022.3 |
| 20260502101727 | 67 | 177 | 0.0 | 5.0 | 0.00 | 0.00 | 0.00 | 53 | 1022.4 |
| 20260502101224 | 67 | 188 | 0.0 | 4.0 | 0.00 | 0.00 | 0.00 | 55 | 1022.4 |
| 20260502100721 | 66 | 188 | 0.0 | 4.0 | 0.00 | 0.00 | 0.00 | 55 | 1022.5 |
| 20260502100218 | 66 | 188 | 0.0 | 3.0 | 0.00 | 0.00 | 0.00 | 54 | 1022.6 |
| 20260502091451 | 64 | 98 | 0.0 | 4.0 | 0.00 | 0.00 | 0.00 | 58 | 1023.2 |
| 20260502090445 | 63 | 53 | 0.0 | 3.0 | 0.00 | 0.00 | 0.00 | 59 | 1023.3 |
| 20260502071514 | 53 | 200 | 0.0 | 1.0 | 0.00 | 0.00 | 0.00 | 75 | 1024.7 |
| 20260502070947 | 53 | 200 | 0.0 | 1.0 | 0.00 | 0.00 | 0.00 | 75 | 1024.8 |
| 20260502065941 | 53 | 203 | 0.0 | 2.0 | 0.00 | 0.00 | 0.00 | 76 | 1025.0 |
| 20260502065438 | 52 | 203 | 0.0 | 1.0 | 0.00 | 0.00 | 0.00 | 77 | 1024.9 |
| 20260502064913 | 51 | 204 | 0.0 | 1.0 | 0.00 | 0.00 | 0.00 | 79 | 1025.0 |
| 20260502064346 | 50 | 204 | 0.0 | 1.0 | 0.00 | 0.00 | 0.00 | 79 | 1025.0 |
| 20260502063843 | 50 | 204 | 0.0 | 1.0 | 0.00 | 0.00 | 0.00 | 80 | 1025.2 |
| 20260502063317 | 49 | 204 | 0.0 | 1.0 | 0.00 | 0.00 | 0.00 | 80 | 1025.2 |
| 20260502062818 | 49 | 204 | 0.0 | 1.0 | 0.00 | 0.00 | 0.00 | 82 | 1025.2 |
| 20260502061222 | 49 | 204 | 0.0 | 1.0 | 0.00 | 0.00 | 0.00 | 82 | 1025.2 |
| 20260502060654 | 48 | 204 | 0.0 | 1.0 | 0.00 | 0.00 | 0.00 | 82 | 1025.2 |
| 20260502060152 | 48 | 207 | 0.0 | 1.0 | 0.00 | 0.00 | 0.00 | 82 | 1025.3 |
| 20260502055627 | 48 | 207 | 0.0 | 1.0 | 0.00 | 0.00 | 0.00 | 81 | 1025.3 |
| 20260502054554 | 48 | 207 | 0.0 | 0.0 | 0.00 | 0.00 | 0.00 | 83 | 1025.4 |
| 20260502054049 | 47 | 207 | 0.0 | 0.0 | 0.00 | 0.00 | 0.00 | 83 | 1025.4 |
| 20260502053552 | 47 | 207 | 0.0 | 0.0 | 0.00 | 0.00 | 0.00 | 85 | 1025.4 |
| 20260502053023 | 46 | 207 | 0.0 | 0.0 | 0.00 | 0.00 | 0.00 | 87 | 1025.5 |
| 20260502052455 | 45 | 207 | 0.0 | 0.0 | 0.00 | 0.00 | 0.00 | 88 | 1025.4 |
| 20260502051928 | 44 | 207 | 0.0 | 0.0 | 0.00 | 0.00 | 0.00 | 89 | 1025.4 |
| 20260502051403 | 43 | 207 | 0.0 | 0.0 | 0.00 | 0.00 | 0.00 | 89 | 1025.5 |
| 20260502050859 | 42 | 207 | 0.0 | 0.0 | 0.00 | 0.00 | 0.00 | 89 | 1025.5 |
| 20260502050402 | 42 | 207 | 0.0 | 0.0 | 0.00 | 0.00 | 0.00 | 88 | 1025.5 |
| 20260502045831 | 42 | 207 | 0.0 | 0.0 | 0.00 | 0.00 | 0.00 | 89 | 1025.4 |
| 20260502044211 | 41 | 207 | 0.0 | 0.0 | 0.00 | 0.00 | 0.00 | 89 | 1025.2 |
| 20260502043645 | 40 | 207 | 0.0 | 0.0 | 0.00 | 0.00 | 0.00 | 89 | 1025.2 |
| 20260502043117 | 40 | 207 | 0.0 | 0.0 | 0.00 | 0.00 | 0.00 | 89 | 1025.2 |
| 20260502042616 | 40 | 207 | 0.0 | 0.0 | 0.00 | 0.00 | 0.00 | 89 | 1025.1 |
| 20260502041545 | 40 | 207 | 0.0 | 0.0 | 0.00 | 0.00 | 0.00 | 89 | 1025.2 |
| 20260502041044 | 40 | 207 | 0.0 | 0.0 | 0.00 | 0.00 | 0.00 | 89 | 1025.1 |
| 20260502040517 | 40 | 207 | 0.0 | 0.0 | 0.00 | 0.00 | 0.00 | 89 | 1025.1 |
| 20260502035952 | 40 | 207 | 0.0 | 0.0 | 0.00 | 0.00 | 0.00 | 89 | 1025.0 |
| 20260502035443 | 40 | 207 | 0.0 | 0.0 | 0.00 | 0.00 | 0.00 | 89 | 1025.1 |
| 20260502034941 | 40 | 207 | 0.0 | 0.0 | 0.00 | 0.00 | 0.00 | 89 | 1025.0 |
| 20260502034414 | 40 | 207 | 0.0 | 0.0 | 0.00 | 0.00 | 0.00 | 89 | 1025.0 |
| 20260502033913 | 40 | 207 | 0.0 | 0.0 | 0.00 | 0.00 | 0.00 | 88 | 1025.0 |
| 20260502033344 | 40 | 207 | 0.0 | 0.0 | 0.00 | 0.00 | 0.00 | 88 | 1025.0 |
| 20260502032838 | 40 | 207 | 0.0 | 0.0 | 0.00 | 0.00 | 0.00 | 88 | 1025.0 |
| 20260502032336 | 40 | 207 | 0.0 | 0.0 | 0.00 | 0.00 | 0.00 | 88 | 1024.9 |
| 20260502031807 | 40 | 207 | 0.0 | 0.0 | 0.00 | 0.00 | 0.00 | 88 | 1025.0 |
| 20260502031306 | 40 | 207 | 0.0 | 0.0 | 0.00 | 0.00 | 0.00 | 88 | 1025.0 |
| 20260502030737 | 40 | 207 | 0.0 | 0.0 | 0.00 | 0.00 | 0.00 | 88 | 1025.1 |
| 20260502030241 | 41 | 207 | 0.0 | 0.0 | 0.00 | 0.00 | 0.00 | 88 | 1025.1 |
| 20260502025731 | 41 | 207 | 0.0 | 0.0 | 0.00 | 0.00 | 0.00 | 88 | 1025.1 |
| 20260502025228 | 41 | 207 | 0.0 | 0.0 | 0.00 | 0.00 | 0.00 | 88 | 1025.1 |
| 20260502024716 | 41 | 207 | 0.0 | 0.0 | 0.00 | 0.00 | 0.00 | 88 | 1025.1 |
| 20260502024220 | 41 | 207 | 0.0 | 0.0 | 0.00 | 0.00 | 0.00 | 87 | 1025.2 |
| 20260502023707 | 41 | 207 | 0.0 | 0.0 | 0.00 | 0.00 | 0.00 | 88 | 1025.2 |
| 20260502022641 | 41 | 207 | 0.0 | 0.0 | 0.00 | 0.00 | 0.00 | 88 | 1025.1 |
| 20260502022140 | 41 | 207 | 0.0 | 0.0 | 0.00 | 0.00 | 0.00 | 88 | 1025.0 |
| 20260502021617 | 41 | 207 | 0.0 | 0.0 | 0.00 | 0.00 | 0.00 | 87 | 1025.1 |
| 20260502021048 | 41 | 207 | 0.0 | 0.0 | 0.00 | 0.00 | 0.00 | 87 | 1025.1 |
| 20260502020520 | 42 | 207 | 0.0 | 0.0 | 0.00 | 0.00 | 0.00 | 87 | 1025.1 |
| 20260502015956 | 42 | 207 | 0.0 | 0.0 | 0.00 | 0.00 | 0.00 | 87 | 1025.0 |
| 20260502015428 | 42 | 207 | 0.0 | 0.0 | 0.00 | 0.00 | 0.00 | 87 | 1025.0 |
| 20260502014901 | 42 | 207 | 0.0 | 0.0 | 0.00 | 0.00 | 0.00 | 87 | 1025.0 |
| 20260502014400 | 42 | 207 | 0.0 | 0.0 | 0.00 | 0.00 | 0.00 | 87 | 1025.1 |
| 20260502013352 | 42 | 207 | 0.0 | 0.0 | 0.00 | 0.00 | 0.00 | 86 | 1025.0 |
| 20260502011252 | 42 | 207 | 0.0 | 0.0 | 0.00 | 0.00 | 0.00 | 86 | 1025.0 |
| 20260502010724 | 42 | 207 | 0.0 | 0.0 | 0.00 | 0.00 | 0.00 | 86 | 1025.0 |
| 20260502010222 | 43 | 207 | 0.0 | 0.0 | 0.00 | 0.00 | 0.00 | 86 | 1025.0 |
| 20260502005720 | 43 | 207 | 0.0 | 0.0 | 0.00 | 0.00 | 0.00 | 86 | 1025.0 |
| 20260502005152 | 43 | 207 | 0.0 | 0.0 | 0.00 | 0.00 | 0.00 | 86 | 1024.9 |
| 20260502004121 | 43 | 207 | 0.0 | 0.0 | 0.00 | 0.00 | 0.00 | 85 | 1024.9 |
| 20260502003555 | 43 | 207 | 0.0 | 0.0 | 0.00 | 0.00 | 0.00 | 85 | 1024.9 |
| 20260502003031 | 44 | 207 | 0.0 | 0.0 | 0.00 | 0.00 | 0.00 | 85 | 1025.0 |
| 20260502002501 | 44 | 207 | 0.0 | 0.0 | 0.00 | 0.00 | 0.00 | 85 | 1025.0 |
| 20260502002000 | 44 | 207 | 0.0 | 0.0 | 0.00 | 0.00 | 0.00 | 84 | 1025.0 |
| 20260502001459 | 44 | 207 | 0.0 | 0.0 | 0.00 | 0.00 | 0.00 | 85 | 1025.1 |
| 20260502000951 | 44 | 207 | 0.0 | 0.0 | 0.00 | 0.00 | 0.00 | 85 | 1025.0 |
| 20260502000446 | 44 | 207 | 0.0 | 0.0 | 0.00 | 0.00 | 0.00 | 84 | 1025.1 |
| 20260501235944 | 44 | 207 | 0.0 | 0.0 | 0.00 | 0.00 | 0.00 | 84 | 1025.1 |
| 20260501235427 | 44 | 207 | 0.0 | 0.0 | 0.00 | 0.00 | 0.00 | 84 | 1025.1 |
| 20260501234847 | 44 | 207 | 0.0 | 0.0 | 0.00 | 0.00 | 0.00 | 84 | 1025.1 |
| 20260501234319 | 44 | 207 | 0.0 | 0.0 | 0.00 | 0.00 | 0.00 | 83 | 1025.1 |
| 20260501233817 | 44 | 207 | 0.0 | 0.0 | 0.00 | 0.00 | 0.00 | 83 | 1025.0 |
| 20260501233253 | 45 | 207 | 0.0 | 0.0 | 0.00 | 0.00 | 0.00 | 83 | 1025.0 |
| 20260501232753 | 45 | 207 | 0.0 | 0.0 | 0.00 | 0.00 | 0.00 | 83 | 1025.0 |
| 20260501232217 | 45 | 207 | 0.0 | 0.0 | 0.00 | 0.00 | 0.00 | 83 | 1025.0 |
| 20260501231658 | 45 | 207 | 0.0 | 0.0 | 0.00 | 0.00 | 0.00 | 83 | 1025.0 |
| 20260501231158 | 45 | 207 | 0.0 | 0.0 | 0.00 | 0.00 | 0.00 | 83 | 1025.0 |
| 20260501230632 | 45 | 207 | 0.0 | 0.0 | 0.00 | 0.00 | 0.00 | 83 | 1025.0 |
| 20260501230106 | 45 | 207 | 0.0 | 0.0 | 0.00 | 0.00 | 0.00 | 83 | 1024.9 |
| 20260501225039 | 46 | 207 | 0.0 | 0.0 | 0.00 | 0.00 | 0.00 | 82 | 1024.7 |
| 20260501224509 | 46 | 207 | 0.0 | 0.0 | 0.00 | 0.00 | 0.00 | 82 | 1024.7 |
| 20260501224010 | 46 | 207 | 0.0 | 0.0 | 0.00 | 0.00 | 0.00 | 81 | 1024.8 |
| 20260501222937 | 46 | 207 | 0.0 | 0.0 | 0.00 | 0.00 | 0.00 | 80 | 1024.8 |
| 20260501222410 | 46 | 207 | 0.0 | 0.0 | 0.00 | 0.00 | 0.00 | 80 | 1024.8 |
| 20260501221909 | 46 | 207 | 0.0 | 0.0 | 0.00 | 0.00 | 0.00 | 80 | 1024.8 |
| 20260501221403 | 47 | 207 | 0.0 | 0.0 | 0.00 | 0.00 | 0.00 | 81 | 1024.7 |
| 20260501220900 | 47 | 207 | 0.0 | 0.0 | 0.00 | 0.00 | 0.00 | 81 | 1024.6 |
| 20260501220357 | 47 | 207 | 0.0 | 0.0 | 0.00 | 0.00 | 0.00 | 81 | 1024.6 |
| 20260501215859 | 47 | 207 | 0.0 | 0.0 | 0.00 | 0.00 | 0.00 | 80 | 1024.5 |
| 20260501215335 | 47 | 207 | 0.0 | 0.0 | 0.00 | 0.00 | 0.00 | 80 | 1024.4 |
| 20260501214833 | 47 | 207 | 0.0 | 0.0 | 0.00 | 0.00 | 0.00 | 80 | 1024.4 |
| 20260501214335 | 47 | 207 | 0.0 | 0.0 | 0.00 | 0.00 | 0.00 | 80 | 1024.4 |
| 20260501213813 | 47 | 207 | 0.0 | 0.0 | 0.00 | 0.00 | 0.00 | 79 | 1024.2 |
| 20260501213301 | 47 | 207 | 0.0 | 0.0 | 0.00 | 0.00 | 0.00 | 79 | 1024.2 |
| 20260501212800 | 47 | 207 | 0.0 | 0.0 | 0.00 | 0.00 | 0.00 | 78 | 1024.2 |
| 20260501212257 | 47 | 207 | 0.0 | 0.0 | 0.00 | 0.00 | 0.00 | 78 | 1024.2 |
| 20260501211757 | 48 | 207 | 0.0 | 0.0 | 0.00 | 0.00 | 0.00 | 78 | 1024.1 |
| 20260501211233 | 48 | 207 | 0.0 | 0.0 | 0.00 | 0.00 | 0.00 | 78 | 1024.1 |
| 20260501210716 | 48 | 207 | 0.0 | 0.0 | 0.00 | 0.00 | 0.00 | 78 | 1024.1 |
| 20260501210217 | 48 | 207 | 0.0 | 0.0 | 0.00 | 0.00 | 0.00 | 78 | 1024.0 |
| 20260501205704 | 49 | 207 | 0.0 | 0.0 | 0.00 | 0.00 | 0.00 | 77 | 1024.0 |
| 20260501205202 | 49 | 207 | 0.0 | 0.0 | 0.00 | 0.00 | 0.00 | 75 | 1024.0 |
| 20260501204701 | 49 | 207 | 0.0 | 0.0 | 0.00 | 0.00 | 0.00 | 75 | 1023.9 |
| 20260501204203 | 49 | 207 | 0.0 | 0.0 | 0.00 | 0.00 | 0.00 | 75 | 1023.9 |
| 20260501202141 | 51 | 207 | 0.0 | 0.0 | 0.00 | 0.00 | 0.00 | 75 | 1023.6 |
| 20260501201636 | 51 | 207 | 0.0 | 0.0 | 0.00 | 0.00 | 0.00 | 74 | 1023.6 |
| 20260501201129 | 51 | 207 | 0.0 | 0.0 | 0.00 | 0.00 | 0.00 | 74 | 1023.5 |
| 20260501200627 | 51 | 207 | 0.0 | 0.0 | 0.00 | 0.00 | 0.00 | 72 | 1023.5 |
| 20260501200128 | 51 | 246 | 0.0 | 0.0 | 0.00 | 0.00 | 0.00 | 72 | 1023.4 |
| 20260501195621 | 51 | 246 | 0.0 | 0.0 | 0.00 | 0.00 | 0.00 | 72 | 1023.4 |
| 20260501195105 | 51 | 246 | 0.0 | 0.0 | 0.00 | 0.00 | 0.00 | 71 | 1023.3 |
| 20260501194543 | 52 | 246 | 0.0 | 0.0 | 0.00 | 0.00 | 0.00 | 72 | 1023.3 |
| 20260501194039 | 52 | 246 | 0.0 | 0.0 | 0.00 | 0.00 | 0.00 | 70 | 1023.2 |
| 20260501193526 | 52 | 246 | 0.0 | 0.0 | 0.00 | 0.00 | 0.00 | 70 | 1023.1 |
| 20260501193025 | 52 | 246 | 0.0 | 0.0 | 0.00 | 0.00 | 0.00 | 71 | 1023.0 |
| 20260501192502 | 52 | 246 | 0.0 | 0.0 | 0.00 | 0.00 | 0.00 | 71 | 1023.0 |
| 20260501192004 | 53 | 246 | 0.0 | 1.0 | 0.00 | 0.00 | 0.00 | 71 | 1022.8 |
| 20260501191445 | 53 | 246 | 0.0 | 1.0 | 0.00 | 0.00 | 0.00 | 70 | 1022.8 |
| 20260501190944 | 53 | 246 | 0.0 | 0.0 | 0.00 | 0.00 | 0.00 | 69 | 1022.7 |
| 20260501185920 | 54 | 246 | 0.0 | 0.0 | 0.00 | 0.00 | 0.00 | 67 | 1022.6 |
| 20260501185417 | 55 | 246 | 0.0 | 0.0 | 0.00 | 0.00 | 0.00 | 67 | 1022.5 |
| 20260501184911 | 55 | 246 | 0.0 | 0.0 | 0.00 | 0.00 | 0.00 | 67 | 1022.5 |
| 20260501184413 | 56 | 246 | 0.0 | 2.0 | 0.00 | 0.00 | 0.00 | 65 | 1022.4 |
| 20260501183909 | 58 | 246 | 0.0 | 2.0 | 0.00 | 0.00 | 0.00 | 62 | 1022.4 |
| 20260501183412 | 59 | 245 | 0.0 | 2.0 | 0.00 | 0.00 | 0.00 | 58 | 1022.2 |
| 20260501182844 | 60 | 244 | 0.0 | 1.0 | 0.00 | 0.00 | 0.00 | 55 | 1022.2 |
| 20260501181846 | 60 | 244 | 0.0 | 3.0 | 0.00 | 0.00 | 0.00 | 47 | 1022.1 |